Simultaneous Nadir Overpasses (SNOs) Predictions

Prediction of SNOs over PacNW region [( 10.00, 139.50) to ( 22.70, 165.60)] between AQUA and NPP Satellites:

Table of predicted SNOs over PacNW region for the next 30.0 days since TLE Epoch: 8/2/2013
Index Date (AQUA) Time (AQUA) AQUA Lat,Lon Date (NPP) Time (NPP) NPP Lat,Lon Distance(km) Time Diff (sec)
1 08/04/2013 03:32:02 22.68, 147.48 08/04/2013 03:28:32 27.22, 144.60 582.66 210
2 08/09/2013 15:59:38 22.63, 147.43 08/09/2013 16:01:50 23.26, 144.58 300.32 132
3 08/17/2013 15:10:11 22.59, 159.77 08/17/2013 15:11:17 23.15, 157.21 269.70 66
4 08/20/2013 03:32:00 22.65, 147.47 08/20/2013 03:28:31 25.95, 144.88 451.40 209
5 08/25/2013 15:59:34 22.60, 147.42 08/25/2013 16:02:11 23.25, 144.53 304.99 157




NCC Satellite Simultaneous Nadir Overpasses (SNOs) Prediction Service
